Weather History for Skagway, AK

Change the Weather History Date:

Thursday, February 6, 2014

  Actual Average Record
Temperature  
Mean Temperature 22 °F -  
Max Temperature 25 °F 31 °F 46 °F (1993)
Min Temperature 18 °F 24 °F -2 °F (2008)
Degree Days  
Heating Degree Days 44    
Moisture  
Dew Point -1 °F    
Average Humidity 39    
Maximum Humidity 43    
Minimum Humidity 33    
Precipitation  
Precipitation 0.00 in - - ()
Sea Level Pressure  
Sea Level Pressure 30.21 in    
Wind  
Wind Speed 20 mph (NE)    
Max Wind Speed 28 mph    
Max Gust Speed 43 mph    
Visibility 10 miles    
Events      
Averages and records for this station are not official NWS values.
T = Trace of Precipitation, MM = Missing Value Source: NWS Daily Summary

Daily Weather History Graph

Daily Weather History Graph

Search for Another Location

Airport:

Trip Planner

Search our weather history database for the weather conditions in past years. The results will help you decide how hot, cold, wet, or windy it might be!

Date:

Astronomy

Feb. 06, 2014 Rise Set
Actual Time 7:59 AM AKST 4:31 PM AKST
Civil Twilight 7:14 AM AKST 5:16 PM AKST
Nautical Twilight 6:25 AM AKST 6:05 PM AKST
Astronomical Twilight 5:38 AM AKST 6:53 PM AKST
Moon 10:02 AM AKST (2/6) 1:25 AM AKST (2/6)
Length of Visible Light 10h 02m
Length of Day
8h 32m
Waxing Crescent, 51% of the Moon is Illuminated
Feb 6
Waxing Crescent
Feb 14
Full
Feb 22
Last Quarter
Feb 28
New
Mar 8
First Quarter

Hourly Weather History & Observations

Time (AKST) Temp. Windchill Dew Point Humidity Pressure Visibility Wind Dir Wind Speed Gust Speed Precip Events Conditions
12:53 AM 21.0 °F 3.6 °F -0.9 °F 38% 30.54 in 10.0 mi ENE 26.5 mph 42.6 mph N/A   Clear
1:53 AM 21.0 °F 5.7 °F -0.9 °F 38% 30.53 in 10.0 mi NE 19.6 mph 34.5 mph N/A   Clear
3:53 AM 19.0 °F 0.6 °F -2.0 °F 40% 30.50 in 10.0 mi NE 27.6 mph 34.5 mph N/A   Clear
4:53 AM 18.0 °F 1.3 °F -2.0 °F 41% 30.48 in 10.0 mi ENE 20.7 mph 38.0 mph N/A   Clear
5:53 AM 18.0 °F 1.7 °F -2.9 °F 40% 30.47 in 10.0 mi NE 19.6 mph 33.4 mph N/A   Clear
6:53 AM 18.0 °F 2.2 °F -2.0 °F 41% 30.44 in 10.0 mi NE 18.4 mph 29.9 mph N/A   Clear
7:53 AM 19.0 °F 4.5 °F -0.0 °F 43% 30.40 in 10.0 mi NE 16.1 mph 26.5 mph N/A   Clear
8:53 AM 19.0 °F 2.4 °F -2.0 °F 40% 30.38 in 10.0 mi NE 21.9 mph - N/A   Clear
9:53 AM 19.0 °F 4.5 °F -2.0 °F 40% 30.34 in 10.0 mi NE 16.1 mph 25.3 mph N/A   Clear
10:53 AM 19.0 °F 3.6 °F -2.0 °F 40% 30.31 in 10.0 mi NE 18.4 mph 25.3 mph N/A   Clear
11:53 AM 21.9 °F 6.2 °F -2.0 °F 35% 30.26 in 10.0 mi NE 21.9 mph 27.6 mph N/A   Clear
12:53 PM 24.1 °F 11.5 °F -0.9 °F 34% 30.21 in 10.0 mi NE 15.0 mph - N/A   Clear
1:53 PM 25.0 °F 11.7 °F -0.9 °F 33% 30.14 in 10.0 mi NE 17.3 mph - N/A   Clear
2:53 PM 25.0 °F 11.7 °F -0.9 °F 33% 30.10 in 10.0 mi NE 17.3 mph - N/A   Clear
3:53 PM 23.0 °F 9.2 °F -0.9 °F 35% 30.05 in 10.0 mi NE 17.3 mph - N/A   Clear
4:53 PM 21.9 °F 7.3 °F -0.9 °F 37% 30.03 in 10.0 mi NE 18.4 mph 26.5 mph N/A   Clear
5:53 PM 21.0 °F 7.6 °F -0.9 °F 38% 30.00 in 10.0 mi NE 15.0 mph - N/A   Clear
6:53 PM 19.9 °F 6.7 °F -0.9 °F 40% 29.98 in 10.0 mi NE 13.8 mph - N/A   Clear
7:53 PM 19.9 °F 5.7 °F -2.0 °F 38% 29.96 in 10.0 mi NE 16.1 mph - N/A   Clear
8:53 PM 19.0 °F 4.0 °F -2.0 °F 40% 29.95 in 10.0 mi NE 17.3 mph - N/A   Clear
9:53 PM 19.0 °F 6.1 °F -2.0 °F 40% 29.95 in 10.0 mi NE 12.7 mph 23.0 mph N/A   Clear
10:53 PM 19.0 °F 9.0 °F -0.9 °F 42% 29.95 in 10.0 mi NNE 8.1 mph - N/A   Clear
11:53 PM 19.0 °F 5.6 °F -2.0 °F 40% 29.95 in 10.0 mi NE 13.8 mph - N/A   Clear